Terminal Aerodrome Forecast
Issued by NWS Sioux Falls, SD

Home | Current Version | Previous Version | Graphics & Text | Print | Product List | Glossary On
Versions: 1 2 3 4 5 6 7 8 9 10 11 12 13 14 15
000
FTUS43 KFSD 101120
TAFHON
TAF
KHON 101120Z 1012/1112 07006KT 6SM -SN OVC030
     FM101400 08007KT 3SM -SN OVC025
     FM101600 09008KT 1SM -SN OVC015
     FM102200 10012KT 1 1/2SM -SN OVC008
     FM110500 08008KT 3SM -SN OVC008=

USA.gov is the U.S. government's official web portal to all federal, state and local government web resources and services.